OpenBCM V1.13 (Linux)

Packet Radio Mailbox

DB0FHN

[JN59NK Nuernberg]

 Login: GUEST





  
I0OJJ  > KEPS     07.05.25 02:52l 363 Lines 17238 Bytes #999 (0) @ AMSAT
BID : ORB25127.1
Read: DL5MBW DJ6UX GUEST
Subj: 2Line Orbital Elements 25127.AMSAT
Path: DB0FHN<DB0FFL<OE5XBL<OE6XPE<DB0ERF<DK0WUE<PD0LPM<IR0AAB<I0OJJ<I0OJJ
Sent: 250507/0025z @:I0OJJ.ITA.EU [Rome] obcm1.08-6-g5b69

>From i0ojj%i0ojj.ita.eu@i0ojj.ampr.org Wed May  7 02:25:07 2025
Received: from i0ojj.ampr.org by i0ojj.ampr.org (JNOS2.0p.7) with SMTP
	id AA17031253 ; Wed, 07 May 2025 02:25:07 +0200
Message-Id: <ORB25127.1@i0ojj.bbs>
>From: i0ojj@i0ojj.ita.eu
X-JNOS-User-Port: Telnet   (i0ojj @ 44.134.109.10)  -> Sending message

From: I0OJJ @ I0OJJ.ITA.EU (Gustavo)
To:   KEPS @ AMSAT
X-Info: This message was generated automatically


QST de W1STR

AMSAT Orbital Elements for Amateur Satellites in TLE Format
>From Orbital Analysis Office
New England Sci-Tech STEM Education Center
Natick, MA May 07, 2025
To all radio amateurs


These element sets describe the orbits of various satellites 
in use by the amateur radio community. For details see:
www.amsat.org/keplerian-elements-formats/

A daily update of element sets is available at:
www.amsat.org/tle/daily-bulletin.txt
or without bulletin text:
www.amsat.org/tle/dailytle.txt


AO-07
1 07530U 74089B   25126.89154581 -.00000024  00000-0  14120-3 0  9998
2 07530 101.9941 130.7962 0012206 184.5850 238.6562 12.53688868309843
UO-11
1 14781U 84021B   25126.47092686  .00001981  00000-0  21478-3 0  9998
2 14781  97.7516  93.5227 0009525  89.4377 270.7932 14.89282343217560
AO-27
1 22825U 93061C   25125.88160388  .00000178  00000-0  85041-4 0  9993
2 22825  98.7389 187.2600 0007880 207.5600 152.5165 14.30786984649028
FO-29
1 24278U 96046B   25125.63377173  .00000028  00000-0  62014-4 0  9997
2 24278  98.5796  24.1201 0350954  73.1839 290.7484 13.53246256418044
NOAA-15
1 25338U 98030A   25126.80400736  .00000300  00000-0  14076-3 0  9999
2 25338  98.5377 152.7446 0011521  98.2475 262.0012 14.26959738403583
GO-32
1 25397U 98043D   25125.84844244  .00000150  00000-0  85029-4 0  9997
2 25397  98.9684 104.2471 0000860   7.4431 352.6759 14.24305774393340
ISS
1 25544U 98067A   25126.87674459  .00009128  00000-0  17136-3 0  9997
2 25544  51.6368 151.6854 0002435  87.2154 333.0693 15.49382277508752
NO-44
1 26931U 01043C   25125.99692411  .00000235  00000-0  11917-3 0  9997
2 26931  67.0510 217.2525 0005737 272.9170  87.1276 14.31717363232314
SO-50
1 27607U 02058C   25126.87069720  .00001609  00000-0  21844-3 0  9990
2 27607  64.5539 304.5804 0052316 341.8996  18.0245 14.81534713204448
CO-55
1 27844U 03031E   25125.82816040  .00000511  00000-0  24171-3 0  9991
2 27844  98.6770 134.5493 0008422 291.1659  68.8620 14.23968016133694
CO-57
1 27848U 03031J   25125.76038539  .00000441  00000-0  21408-3 0  9999
2 27848  98.6798 134.5142 0008509 310.7887  49.2553 14.23306524133414
RS-22
1 27939U 03042A   25126.83911184  .00001768  00000-0  28806-3 0  9999
2 27939  98.3258 295.4827 0012653 114.9666  16.8109 14.72264327155862
NOAA-18
1 28654U 05018A   25126.85962897  .00000274  00000-0  16840-3 0  9994
2 28654  98.8421 206.7147 0013556 221.3061 138.7087 14.13592516 28989
CO-58
1 28895U 05043F   25126.37040003  .00002564  00000-0  42662-3 0  9997
2 28895  98.2448 270.3054 0015514  58.9130 301.3596 14.70897245 42147
CO-65
1 32785U 08021C   25125.88200065  .00007366  00000-0  53611-3 0  9991
2 32785  97.7811  96.8034 0009178 339.7183  20.3677 15.04061017923867
AAUSAT2
1 32788U 08021F   25126.53903103  .00588479  13415-3  20839-2 0  9991
2 32788  97.5933 124.3127 0008635 142.8783 217.3088 15.88956699928128
CO-66
1 32791U 08021J   25125.90575051  .00016634  00000-0  82385-3 0  9999
2 32791  97.7263 105.2007 0001652 314.4163  45.6934 15.17849588925237
RS-30
1 32953U 08025A   25126.84222531  .00000026  00000-0  11744-3 0  9998
2 32953  82.5025 248.1557 0020507 119.1706 241.1429 12.43163708769344
NOAA-19
1 33591U 09005A   25126.78982633  .00000260  00000-0  16236-3 0  9996
2 33591  98.9989 191.3019 0014854  99.5139 260.7712 14.13356717837334
SRMSAT
1 37841U 11058D   25126.32717787  .00000518  00000-0  13773-3 0  9994
2 37841  19.9735   1.8242 0011757  48.5725 107.9832 14.11424552700486
ZACUBE-1
1 39417U 13066B   25126.15075731  .00006017  00000-0  52650-3 0  9990
2 39417  97.7767  83.3619 0044992 164.7235 195.5356 14.96311996619767
Delfi-N3xt
1 39428U 13066N   25126.33607196  .00008542  00000-0  87586-3 0  9999
2 39428  97.8357  44.3835 0087396 112.7062 248.3422 14.87847773614165
GOMX-1
1 39430U 13066Q   25126.87258653  .00002091  00000-0  33213-3 0  9992
2 39430  97.6879 347.6010 0131449 300.7292  58.1020 14.67516200610468
LO-74
1 39440U 13066AA  25126.42404874  .00005159  00000-0  52670-3 0  9998
2 39440  97.8470  71.2310 0060731 293.6113  65.8735 14.89691909617557
AO-73
1 39444U 13066AE  25125.83991623  .00009864  00000-0  74660-3 0  9999
2 39444  97.7784  87.6368 0042182 142.5322 217.8856 15.01799610618373
DTUSAT-2
1 40030U 14033W   25126.38467956  .00009313  00000-0  61233-3 0  9996
2 40030  98.0534  96.5685 0009619 163.7380 196.4157 15.07787518591759
EO-80
1 40032U 14033Y   25125.87588031  .00009702  00000-0  63662-3 0  9999
2 40032  98.0404  95.7385 0010381 113.0610 247.1712 15.07842347591143
LILACSAT-2
1 40908U 15049K   25126.85396291  .00013172  00000-0  35278-3 0  9991
2 40908  97.5087 146.4023 0007296 282.2380  77.8048 15.38122178533045
IO-86
1 40931U 15052B   25038.81889873  .00001817  00000-0  15548-3 0  9993
2 40931   6.0001 108.1159 0012838 187.7041 172.2889 14.78568669506492
Horyu-4
1 41340U 16012D   25126.04055114  .00028454  00000-0  79792-3 0  9998
2 41340  30.9976   3.9533 0007444  46.5348 313.5915 15.35344433507475
Lapan A3
1 41603U 16040E   25126.87835912  .00004559  00000-0  16105-3 0  9993
2 41603  97.1379 132.8137 0012118  38.5857 321.6248 15.29620323492639
CAS-2T
1 41847U 16066G   25126.78392493  .00001076  00000-0  16380-3 0  9999
2 41847  98.4207 201.5380 0345189 280.7944  75.4575 14.43392517446140
CAS-4B
1 42759U 17034B   25126.56034175  .00061068  00000-0  75329-3 0  9999
2 42759  43.0073 164.0026 0018178  50.2654 309.9808 15.59129004437289
CAS-4A
1 42761U 17034D   25126.55408009  .00064170  00000-0  76081-3 0  9995
2 42761  43.0109 161.5231 0019366  55.0151 305.2528 15.60119513437304
TechnoSat
1 42829U 17042E   25126.59261603  .00004031  00000-0  31517-3 0  9995
2 42829  97.3933 296.9283 0015088  40.6584 319.5764 15.01519375425620
AO-91
1 43017U 17073E   25126.87173347  .00007847  00000-0  40883-3 0  9991
2 43017  97.5289 358.5015 0172755 281.5410  76.6465 15.04207229404141
S-Net D
1 43186U 18014G   25125.68051201  .00007682  00000-0  45730-3 0  9999
2 43186  97.5648  28.9464 0008922 356.7397   3.3774 15.11470151397107
S-Net B
1 43187U 18014H   25126.61230254  .00006920  00000-0  41243-3 0  9990
2 43187  97.5657  29.8385 0009373 347.9266  12.1738 15.11463343397246
S-Net A
1 43188U 18014J   25125.68101243  .00007748  00000-0  46106-3 0  9994
2 43188  97.5665  29.0623 0009445 351.9280   8.1796 15.11475639397109
S-Net C
1 43189U 18014K   25126.61461912  .00006835  00000-0  40735-3 0  9999
2 43189  97.5682  29.9949 0010564 339.2344  20.8455 15.11460210395798
Ten-Koh
1 43677U 18084G   25126.05262093  .00003173  00000-0  25749-3 0  9995
2 43677  98.0905 296.9379 0007288  42.1927 317.9855 15.00412356355069
PO-101
1 43678U 18084H   25126.79527184  .00002390  00000-0  20677-3 0  9997
2 43678  98.1021 301.6388 0009077  42.4892 317.7030 14.98175332355324
QO-100
1 43700U 18090A   25125.88348872  .00000137  00000-0  00000+0 0  9995
2 43700   0.0152 257.1890 0001929 182.8269 127.8145  1.00270152 23835
MinXSS-2
1 43758U 18099A   25126.73874733  .00017294  00000-0  70141-3 0  9991
2 43758  97.5037 192.6886 0010490 271.9109  88.0927 15.24642750351811
AO-95
1 43770U 18099N   25125.88515364  .00011963  00000-0  61465-3 0  9998
2 43770  97.4947 184.3658 0009663 340.8330  19.2538 15.16596841351297
RANGE-A
1 43773U 18099R   25126.11729405  .00005577  00000-0  35856-3 0  9990
2 43773  97.4517 175.5208 0009807 316.4315  43.6139 15.08765756351021
MOVE-II
1 43780U 18099Y   25126.73822223  .00153641  00000-0  16277-2 0  9999
2 43780  97.4682 200.1175 0005507 223.9505 136.1316 15.63607735352496
SNUSat 2
1 43782U 18099AA  25126.11433093  .00009890  00000-0  54619-3 0  9995
2 43782  97.4623 181.6215 0010579 271.3456  88.6564 15.14073900351287
SnugLite
1 43784U 18099AC  25126.64843323  .00010577  00000-0  53942-3 0  9998
2 43784  97.4439 181.6399 0001937 261.0968  99.0046 15.16923079351496
ITASat 1
1 43786U 18099AE  25126.14868222  .00008130  00000-0  46963-3 0  9997
2 43786  97.4598 181.2639 0013207 330.7970  29.2521 15.12492686351255
EAGLET 1
1 43790U 18099AJ  25125.93393244  .00004966  00000-0  31978-3 0  9998
2 43790  97.4793 181.1211 0010593 313.6620  46.3730 15.08754638350848
ESEO
1 43792U 18099AL  25125.83858007  .00001673  00000-0  13032-3 0  9995
2 43792  97.4486 174.7551 0010736 285.7670  74.2371 15.02470890350601
CSIM
1 43793U 18099AM  25126.77435522  .00135369  00000-0  14510-2 0  9994
2 43793  97.4846 202.3733 0007631 225.3809 134.6827 15.63351002352346
JO-97
1 43803U 18099AX  25125.90106481  .00015218  00000-0  70811-3 0  9996
2 43803  97.4691 185.3037 0006055 259.7011 100.3542 15.20020597351504
Suomi 100
1 43804U 18099AY  25125.79509870  .00011955  00000-0  59514-3 0  9994
2 43804  97.4753 184.5908 0010959 266.1989  93.7991 15.17694498351423
ISAT
1 43879U 18111D   25126.27311421  .00023358  00000-0  84057-3 0  9998
2 43879  97.5975  39.9400 0007375 334.3079  25.7793 15.28579072346430
UWE-4
1 43880U 18111E   25126.82297091  .00017625  00000-0  70919-3 0  9999
2 43880  97.5920  39.2070 0011166 340.1030  19.9770 15.24900510346489
Sparrow
1 43881U 18111F   25125.49671922  .00028312  00000-0  98400-3 0  9991
2 43881  97.6113  41.8938 0007539  23.3254 336.8327 15.29676044348426
Prox-1
1 44339U 19036A   25126.56026929  .00012480  00000-0  16062-2 0  9999
2 44339  23.9973 285.1445 0007994  45.0853 315.0292 14.79252665313063
